格洛纳斯K-12L COSMOS 2501 [GLONASS-K]

导读 | 豆包AI

COSMOS 2501(编号宇宙2501)是隶属于独联体CIS的格洛纳斯GLONASS导航卫星,于2014年11月30日发射入轨,是俄罗斯推进格洛纳斯全球导航系统组网的重要组成部分。它运行于约19100千米的中地球轨道,为全球尤其是高纬度区域提供高精度定位、测速与授时服务,对维持格洛纳斯星座服务能力、提升系统覆盖性具有关键意义。

基本信息
目录编号:
40315
目录名称:
COSMOS 2501 (GLONASS)
国际标识:
2014-075A
轨道中心:
EARTH
卫星名称:
格洛纳斯K-12L
卫星全名:
格洛纳斯K-12L COSMOS 2501 [GLONASS-K]
卫星状态:
在轨 (已飞行4169 天)
发射日期:
2014-11-30 UTC
国别 :
俄罗斯(独联体) (CIS)
星等 :
--
轨道信息
数据来源 国际轨道数据 AOE轨道数据
星历时间 2026-04-29T19:56:47+0800
22小时前
查看轨道信息
2026-04-28T10:00:00+0800
2天前
查看轨道信息
半长轴 25508.081km 25508.089km
偏心率 0.0021908 0.0021903
轨道倾角 63.614° 63.614°
近地点辐角 210.172° 210.243°
升交点赤经 192.057° 192.106°
平近点角 149.766° 144.587°
近地点 19074.06km 19074.081km
远地点 19185.828km 19185.823km
周期 675.735分钟 675.735分钟
每日圈数 2.131013 2.131012
详细信息
平衡模式:
三轴稳定
覆盖范围:
全球
运营商:
列舍特涅夫卫星信息系统
运营商所在国:
俄罗斯
制造商(研发单位):
列舍特涅夫卫星信息系统
制造商所在国:
俄罗斯
使用方式:
暂无
卫星简介
格洛纳斯(GLONASS )是苏联/俄罗斯研制卫星导航系统。标准配置为24颗卫星,其中18颗卫星就能保证该系统为俄罗斯境内用户提供全部服务。该卫星仍在工作。
2D轨道图
3D轨道图
轨道高度分析图
轨道倾角分析图
轨道综合分析图
查看轨道综合分析图